Kosmos-409

operational
NORAD ID: 5180 Int'l Des: 1971-038 Owner: OKB10 Country: SU
LEOCIRCULAR

Über Kosmos-409

Beschreibung wird geladen...

Live-Position

3D-Globus wird geladen...

Nächste Überflüge

Höhenverlauf

Altitude vs Time

uPlot chart will show altitude changes over time

Zweizeiliger Elementsatz

1 05180U 71038A 26062.64854139 -.00000149 00000-0 -33224-3 0 9992
2 05180 74.0029 172.4290 0022007 81.6040 24.9183 13.17841340638346
Epoch: 3. März 2026 • Age: 25 hours

Aktueller Status

Höhe 1188.8 km
Geschwindigkeit 7.27 km/s
Subsatellitenpunkt 74.05°N, 87.65°E
Typ other

Große Konstellationen

Loading constellations...